AEA2002 LEMD-LEBL

Flight info

Callsign AEA2002
Flight time 0h 51m
Altitude 30000
Route PINAR N870 PONEN T600 CASPE
Aircraft B738/M-SDE2E3GHIJ4J7RWZ/LB1D1

Departure

Time 2026-05-06 00:27
Airport Adolfo Suárez Madrid–Barajas Airport (LEMD)

Arrival

Time 2026-05-06 01:18
Airport Josep Tarradellas Barcelona-El Prat Airport (LEBL)
Time Latitude Longitude Altitude Speed Heading
2026-05-06 00:05 40.49704 -3.58999 1986 ft 0 kts 180°
2026-05-06 00:21 40.49713 -3.58998 1986 ft 4 kts 182°
2026-05-06 00:22 40.49736 -3.59005 1986 ft 4 kts 136°
2026-05-06 00:22 40.49748 -3.59033 1985 ft 4 kts 94°
2026-05-06 00:22 40.49749 -3.59046 1985 ft 1 kts 89°
2026-05-06 00:24 40.49748 -3.59032 1987 ft 7 kts 90°
2026-05-06 00:24 40.49749 -3.58904 1989 ft 17 kts 90°
2026-05-06 00:24 40.49735 -3.58722 1988 ft 23 kts 91°
2026-05-06 00:25 40.49737 -3.58523 1988 ft 20 kts 90°
2026-05-06 00:25 40.49738 -3.58316 1989 ft 25 kts 89°
2026-05-06 00:25 40.49738 -3.58119 1990 ft 18 kts 95°
2026-05-06 00:25 40.49621 -3.58062 1991 ft 23 kts 179°
2026-05-06 00:26 40.49510 -3.57992 1991 ft 20 kts 92°
2026-05-06 00:26 40.49510 -3.57814 1993 ft 21 kts 89°
2026-05-06 00:26 40.49514 -3.57639 1994 ft 17 kts 82°
2026-05-06 00:26 40.49578 -3.57500 1995 ft 19 kts 36°
2026-05-06 00:27 40.49848 -3.57464 1994 ft 74 kts 360°
2026-05-06 00:27 40.50597 -3.57469 1996 ft 139 kts 360°
2026-05-06 00:27 40.51715 -3.57481 2175 ft 175 kts 359°
2026-05-06 00:27 40.52899 -3.57515 3176 ft 165 kts 358°
2026-05-06 00:28 40.54087 -3.57560 3861 ft 179 kts 358°
2026-05-06 00:28 40.55432 -3.57405 4160 ft 208 kts 14°
2026-05-06 00:28 40.56888 -3.56820 4496 ft 226 kts 16°
2026-05-06 00:28 40.58420 -3.56228 5096 ft 232 kts 15°
2026-05-06 00:29 40.59987 -3.55635 5829 ft 235 kts 14°
2026-05-06 00:29 40.61566 -3.55044 6655 ft 236 kts 13°
2026-05-06 00:29 40.63157 -3.54449 7435 ft 240 kts 13°
2026-05-06 00:29 40.64808 -3.54047 8166 ft 243 kts
2026-05-06 00:30 40.66513 -3.53907 8933 ft 247 kts
2026-05-06 00:30 40.68247 -3.53788 9699 ft 252 kts
2026-05-06 00:30 40.69989 -3.53408 10363 ft 260 kts 24°
2026-05-06 00:30 40.71402 -3.51894 10781 ft 280 kts 51°
2026-05-06 00:31 40.72580 -3.49698 11005 ft 306 kts 55°
2026-05-06 00:31 40.73803 -3.47264 11211 ft 331 kts 56°
2026-05-06 00:31 40.75108 -3.44657 11613 ft 347 kts 55°
2026-05-06 00:31 40.76465 -3.41974 12253 ft 355 kts 55°
2026-05-06 00:32 40.77849 -3.39264 13032 ft 358 kts 54°
2026-05-06 00:32 40.78798 -3.37419 13578 ft 361 kts 54°
2026-05-06 00:32 40.80685 -3.33764 14484 ft 367 kts 54°
2026-05-06 00:32 40.82133 -3.30967 15136 ft 372 kts 53°
2026-05-06 00:33 40.83601 -3.28127 15786 ft 376 kts 53°
2026-05-06 00:33 40.84599 -3.26195 16251 ft 379 kts 54°
2026-05-06 00:33 40.86060 -3.21970 17110 ft 388 kts 74°
2026-05-06 00:33 40.86517 -3.19633 17576 ft 391 kts 75°
2026-05-06 00:34 40.87165 -3.16168 18204 ft 396 kts 75°
2026-05-06 00:34 40.87826 -3.12612 18724 ft 402 kts 75°
2026-05-06 00:34 40.88506 -3.09000 19225 ft 408 kts 75°
2026-05-06 00:34 40.89204 -3.05348 19713 ft 414 kts 74°
2026-05-06 00:35 40.89922 -3.01639 20210 ft 419 kts 74°
2026-05-06 00:35 40.90654 -2.97873 20690 ft 425 kts 74°
2026-05-06 00:35 40.91398 -2.94062 21164 ft 431 kts 74°
2026-05-06 00:35 40.92151 -2.90199 21647 ft 437 kts 74°
2026-05-06 00:36 40.92913 -2.86280 22103 ft 443 kts 74°
2026-05-06 00:36 40.93682 -2.82321 22557 ft 448 kts 74°
2026-05-06 00:36 40.94461 -2.78296 23017 ft 454 kts 74°
2026-05-06 00:36 40.95247 -2.74228 23452 ft 460 kts 74°
2026-05-06 00:37 40.96041 -2.70108 23843 ft 465 kts 74°
2026-05-06 00:37 40.96843 -2.65940 24281 ft 468 kts 74°
2026-05-06 00:37 40.97645 -2.61764 24740 ft 469 kts 74°
2026-05-06 00:37 40.98449 -2.57574 25185 ft 472 kts 74°
2026-05-06 00:38 40.99266 -2.53346 25584 ft 475 kts 74°
2026-05-06 00:38 41.00089 -2.49094 25980 ft 478 kts 74°
2026-05-06 00:38 41.00915 -2.44817 26380 ft 481 kts 74°
2026-05-06 00:38 41.01743 -2.40511 26769 ft 484 kts 74°
2026-05-06 00:39 41.02564 -2.36230 27150 ft 487 kts 74°
2026-05-06 00:39 41.03388 -2.31885 27630 ft 487 kts 75°
2026-05-06 00:39 41.04204 -2.27547 28211 ft 484 kts 75°
2026-05-06 00:39 41.05015 -2.23220 28778 ft 483 kts 75°
2026-05-06 00:40 41.05823 -2.18908 29302 ft 482 kts 75°
2026-05-06 00:40 41.06630 -2.14603 29843 ft 480 kts 75°
2026-05-06 00:40 41.07436 -2.10294 30050 ft 484 kts 75°
2026-05-06 00:41 41.09054 -2.01634 30023 ft 481 kts 75°
2026-05-06 00:41 41.10654 -1.93063 30040 ft 479 kts 75°
2026-05-06 00:42 41.12257 -1.84437 30044 ft 483 kts 75°
2026-05-06 00:42 41.13852 -1.75814 30032 ft 485 kts 75°
2026-05-06 00:43 41.15451 -1.67126 30038 ft 485 kts 76°
2026-05-06 00:43 41.17044 -1.58432 30037 ft 483 kts 76°
2026-05-06 00:44 41.18623 -1.49780 30027 ft 481 kts 76°
2026-05-06 00:44 41.20188 -1.41156 30021 ft 480 kts 76°
2026-05-06 00:45 41.21740 -1.32526 30029 ft 479 kts 76°
2026-05-06 00:45 41.23282 -1.23909 30018 ft 480 kts 76°
2026-05-06 00:46 41.24822 -1.15265 30005 ft 481 kts 76°
2026-05-06 00:46 41.26358 -1.06612 30032 ft 482 kts 76°
2026-05-06 00:47 41.27882 -0.97979 30001 ft 483 kts 76°
2026-05-06 00:47 41.29410 -0.89286 30014 ft 484 kts 76°
2026-05-06 00:48 41.30935 -0.80569 30001 ft 484 kts 77°
2026-05-06 00:48 41.32455 -0.71838 29998 ft 485 kts 77°
2026-05-06 00:49 41.33971 -0.63095 29996 ft 484 kts 77°
2026-05-06 00:49 41.35078 -0.54277 29988 ft 483 kts 90°
2026-05-06 00:49 41.34971 -0.49827 29981 ft 479 kts 101°
2026-05-06 00:50 41.34491 -0.45460 29992 ft 473 kts 103°
2026-05-06 00:50 41.33446 -0.36955 29971 ft 461 kts 103°
2026-05-06 00:51 41.32430 -0.28512 29864 ft 465 kts 103°
2026-05-06 00:51 41.31936 -0.24267 29518 ft 461 kts 102°
2026-05-06 00:51 41.31454 -0.20065 29121 ft 457 kts 102°
2026-05-06 00:51 41.30978 -0.15906 28754 ft 453 kts 102°
2026-05-06 00:52 41.30505 -0.11781 28338 ft 450 kts 102°
2026-05-06 00:52 41.30033 -0.07691 27951 ft 446 kts 102°
2026-05-06 00:52 41.29561 -0.03623 27553 ft 443 kts 102°
2026-05-06 00:52 41.29097 0.00362 27167 ft 440 kts 103°
2026-05-06 00:53 41.28628 0.04373 26776 ft 438 kts 103°
2026-05-06 00:53 41.28161 0.08362 26404 ft 435 kts 103°
2026-05-06 00:53 41.27695 0.12329 26023 ft 433 kts 103°
2026-05-06 00:53 41.27230 0.16268 25635 ft 431 kts 103°
2026-05-06 00:54 41.26993 0.20241 25231 ft 434 kts 86°
2026-05-06 00:54 41.27589 0.24156 24907 ft 431 kts 73°
2026-05-06 00:54 41.28429 0.27973 24536 ft 429 kts 72°
2026-05-06 00:54 41.29303 0.31760 24155 ft 428 kts 71°
2026-05-06 00:55 41.30179 0.35550 23757 ft 428 kts 72°
2026-05-06 00:55 41.31040 0.39329 23353 ft 427 kts 72°
2026-05-06 00:55 41.31887 0.43113 22905 ft 426 kts 72°
2026-05-06 00:55 41.32719 0.46882 22527 ft 423 kts 73°
2026-05-06 00:56 41.33539 0.50633 22144 ft 420 kts 73°
2026-05-06 00:56 41.34348 0.54354 21769 ft 417 kts 73°
2026-05-06 00:56 41.35149 0.58047 21396 ft 414 kts 73°
2026-05-06 00:56 41.35944 0.61718 21037 ft 411 kts 73°
2026-05-06 00:57 41.36729 0.65351 20673 ft 408 kts 73°
2026-05-06 00:57 41.37509 0.68967 20314 ft 404 kts 73°
2026-05-06 00:57 41.38285 0.72563 19950 ft 401 kts 73°
2026-05-06 00:57 41.39049 0.76114 19601 ft 398 kts 73°
2026-05-06 00:58 41.39796 0.79592 19247 ft 395 kts 73°
2026-05-06 00:58 41.40548 0.83096 18905 ft 391 kts 73°
2026-05-06 00:58 41.41291 0.86563 18552 ft 388 kts 73°
2026-05-06 00:58 41.42027 0.90007 18199 ft 384 kts 73°
2026-05-06 00:59 41.42755 0.93417 17792 ft 381 kts 73°
2026-05-06 00:59 41.43476 0.96796 17454 ft 377 kts 73°
2026-05-06 00:59 41.44188 1.00140 17083 ft 373 kts 73°
2026-05-06 00:59 41.44891 1.03447 16746 ft 369 kts 73°
2026-05-06 01:00 41.45586 1.06721 16384 ft 366 kts 73°
2026-05-06 01:00 41.46272 1.09964 16103 ft 360 kts 73°
2026-05-06 01:00 41.46944 1.13151 15845 ft 354 kts 73°
2026-05-06 01:00 41.47604 1.16285 15584 ft 349 kts 73°
2026-05-06 01:01 41.48256 1.19384 15319 ft 344 kts 73°
2026-05-06 01:01 41.48900 1.22446 15072 ft 341 kts 73°
2026-05-06 01:01 41.49534 1.25468 14841 ft 336 kts 74°
2026-05-06 01:01 41.50160 1.28455 14544 ft 334 kts 74°
2026-05-06 01:02 41.50775 1.31396 14242 ft 332 kts 74°
2026-05-06 01:02 41.51395 1.34361 13910 ft 331 kts 74°
2026-05-06 01:02 41.52013 1.37322 13562 ft 330 kts 74°
2026-05-06 01:02 41.52627 1.40268 13205 ft 329 kts 74°
2026-05-06 01:03 41.53238 1.43201 12861 ft 328 kts 74°
2026-05-06 01:03 41.53845 1.46125 12521 ft 326 kts 74°
2026-05-06 01:03 41.54448 1.49034 12179 ft 324 kts 75°
2026-05-06 01:03 41.54818 1.51981 11881 ft 321 kts 88°
2026-05-06 01:04 41.54846 1.54947 11595 ft 318 kts 91°
2026-05-06 01:04 41.54831 1.57883 11319 ft 315 kts 91°
2026-05-06 01:04 41.54818 1.60810 10997 ft 314 kts 91°
2026-05-06 01:04 41.54814 1.63720 10683 ft 313 kts 91°
2026-05-06 01:05 41.54819 1.66586 10373 ft 312 kts 90°
2026-05-06 01:05 41.54831 1.69450 10219 ft 305 kts 90°
2026-05-06 01:05 41.54846 1.72245 10073 ft 298 kts 90°
2026-05-06 01:05 41.54861 1.74985 9867 ft 294 kts 90°
2026-05-06 01:06 41.54876 1.77715 9567 ft 293 kts 90°
2026-05-06 01:06 41.54892 1.80428 9277 ft 291 kts 90°
2026-05-06 01:06 41.54906 1.83122 8976 ft 290 kts 90°
2026-05-06 01:06 41.54920 1.85812 8695 ft 288 kts 90°
2026-05-06 01:07 41.54932 1.88480 8412 ft 287 kts 90°
2026-05-06 01:07 41.54784 1.91121 8129 ft 285 kts 99°
2026-05-06 01:07 41.54427 1.93727 7845 ft 284 kts 102°
2026-05-06 01:07 41.54038 1.96297 7566 ft 283 kts 102°
2026-05-06 01:08 41.53655 1.98880 7301 ft 282 kts 101°
2026-05-06 01:08 41.53289 2.01448 7030 ft 281 kts 101°
2026-05-06 01:08 41.52934 2.04013 6740 ft 280 kts 101°
2026-05-06 01:08 41.52590 2.06529 6476 ft 279 kts 100°
2026-05-06 01:09 41.52238 2.09113 6191 ft 278 kts 100°
2026-05-06 01:09 41.51894 2.11650 5925 ft 277 kts 100°
2026-05-06 01:09 41.51549 2.14147 5658 ft 276 kts 100°
2026-05-06 01:09 41.51200 2.16652 5407 ft 275 kts 100°
2026-05-06 01:10 41.50852 2.19161 5183 ft 274 kts 97°
2026-05-06 01:10 41.50620 2.21686 4958 ft 273 kts 95°
2026-05-06 01:10 41.50421 2.24185 4715 ft 267 kts 95°
2026-05-06 01:10 41.50232 2.26603 4539 ft 257 kts 95°
2026-05-06 01:11 41.50028 2.28926 4370 ft 247 kts 101°
2026-05-06 01:11 41.49400 2.30987 4241 ft 235 kts 121°
2026-05-06 01:11 41.48556 2.32790 4093 ft 223 kts 123°
2026-05-06 01:11 41.47704 2.34455 3974 ft 213 kts 134°
2026-05-06 01:12 41.46552 2.35614 3896 ft 205 kts 152°
2026-05-06 01:12 41.45311 2.36580 3779 ft 207 kts 156°
2026-05-06 01:12 41.43945 2.37046 3677 ft 201 kts 185°
2026-05-06 01:12 41.42556 2.36920 3580 ft 201 kts 189°
2026-05-06 01:13 41.41169 2.36768 3477 ft 203 kts 189°
2026-05-06 01:13 41.39820 2.36316 3361 ft 197 kts 215°
2026-05-06 01:13 41.39010 2.35011 3303 ft 179 kts 255°
2026-05-06 01:13 41.38531 2.33486 3190 ft 180 kts 246°
2026-05-06 01:14 41.37477 2.30566 3075 ft 171 kts 250°
2026-05-06 01:14 41.36986 2.29115 3000 ft 172 kts 250°
2026-05-06 01:14 41.36482 2.27639 2826 ft 179 kts 250°
2026-05-06 01:15 41.35969 2.26144 2595 ft 175 kts 250°
2026-05-06 01:15 41.35479 2.24720 2381 ft 163 kts 250°
2026-05-06 01:15 41.35029 2.23409 2176 ft 153 kts 250°
2026-05-06 01:15 41.34586 2.22110 1980 ft 157 kts 249°
2026-05-06 01:16 41.34129 2.20772 1767 ft 160 kts 249°
2026-05-06 01:16 41.33679 2.19461 1523 ft 150 kts 248°
2026-05-06 01:16 41.33255 2.18224 1344 ft 145 kts 248°
2026-05-06 01:16 41.32835 2.16994 1139 ft 148 kts 248°
2026-05-06 01:17 41.32408 2.15747 930 ft 148 kts 248°
2026-05-06 01:17 41.31980 2.14494 737 ft 149 kts 247°
2026-05-06 01:17 41.31554 2.13248 523 ft 149 kts 247°
2026-05-06 01:17 41.31127 2.11998 319 ft 148 kts 248°
2026-05-06 01:18 41.30707 2.10768 108 ft 145 kts 248°
2026-05-06 01:18 41.30307 2.09583 18 ft 132 kts 244°
2026-05-06 01:18 41.29985 2.08654 22 ft 89 kts 246°
2026-05-06 01:18 41.29813 2.08151 17 ft 36 kts 245°
2026-05-06 01:19 41.29705 2.07943 16 ft 26 kts 226°
2026-05-06 01:19 41.29600 2.07838 18 ft 12 kts 213°
2026-05-06 01:19 41.29536 2.07870 19 ft 12 kts 103°
2026-05-06 01:19 41.29568 2.07982 17 ft 15 kts 65°
2026-05-06 01:20 41.29615 2.08123 18 ft 15 kts 66°
2026-05-06 01:20 41.29609 2.08233 17 ft 15 kts 149°
2026-05-06 01:20 41.29500 2.08300 14 ft 19 kts 156°
2026-05-06 01:20 41.29416 2.08349 14 ft 12 kts 156°
2026-05-06 01:21 41.29359 2.08382 13 ft 15 kts 158°
2026-05-06 01:21 41.29275 2.08434 14 ft 8 kts 149°
2026-05-06 01:21 41.29219 2.08455 13 ft 9 kts 193°
2026-05-06 01:21 41.29159 2.08427 15 ft 2 kts 199°
2026-05-06 01:22 41.29154 2.08425 15 ft 1 kts 199°
2026-05-06 01:22 41.29140 2.08418 17 ft 3 kts 199°
2026-05-06 01:22 41.29114 2.08406 16 ft 5 kts 199°
2026-05-06 01:22 41.29075 2.08388 16 ft 8 kts 201°
2026-05-06 01:23 41.29038 2.08324 16 ft 10 kts 245°
2026-05-06 01:23 41.29014 2.08252 17 ft 1 kts 245°
2026-05-06 01:23 41.29007 2.08232 17 ft 4 kts 245°
2026-05-06 01:23 41.28994 2.08193 18 ft 6 kts 245°
2026-05-06 01:24 41.28975 2.08138 17 ft 8 kts 245°
2026-05-06 01:24 41.28957 2.08061 17 ft 9 kts 281°
2026-05-06 01:24 41.28997 2.08016 17 ft 3 kts 335°
2026-05-06 01:24 41.29004 2.08012 19 ft 1 kts 334°
2026-05-06 01:25 41.29010 2.08008 18 ft 1 kts 334°
2026-05-06 01:25 41.29017 2.08004 18 ft 0 kts 334°
2026-05-06 01:36 41.29016 2.08004 18 ft 0 kts 334°